When you browse on this site, cookies collect data to enhance your experience and personalize the content and advertising you see.
Visit our Privacy Policy to learn more. By continuing to use the site, you agree to this use of cookies and data.
  • In Hungary
  • List of Countries
  • For 7 days
  • Water Temperature
  • Satellite Maps
  • Weather Map
  • News
  • Weather Widgets
  • user-avatar
    Login

    Hourly Weather Snochowice

    Today, 20 May, Monday

    Time Temperature Precipitation Wind Pressure Humidity
    00:00 +14°C° 0 mm 3 mps 731 mmHg 93%
    01:00 +14°C° 0 mm 3 mps 731 mmHg 95%
    02:00 +14°C° 0 mm 3 mps 730 mmHg 95%
    03:00 +14°C° 0 mm 3 mps 730 mmHg 96%
    04:00 +14°C° 0 mm 3 mps 729 mmHg 97%
    05:00 +15°C° 0 mm 4 mps 729 mmHg 94%
    06:00 +17°C° 0 mm 4 mps 729 mmHg 92%
    07:00 +19°C° 0 mm 5 mps 729 mmHg 87%
    08:00 +20°C° 0 mm 6 mps 729 mmHg 78%
    09:00 +21°C° 0 mm 7 mps 730 mmHg 68%
    10:00 +23°C° 0 mm 7 mps 730 mmHg 59%
    11:00 +23°C° 0 mm 7 mps 730 mmHg 56%
    12:00 +24°C° 0 mm 7 mps 730 mmHg 53%
    13:00 +23°C° 0 mm 5 mps 731 mmHg 54%
    14:00 +23°C° 0 mm 5 mps 731 mmHg 55%
    15:00 +23°C° 0 mm 5 mps 731 mmHg 57%
    16:00 +22°C° 0 mm 5 mps 731 mmHg 58%
    17:00 +21°C° 0 mm 4 mps 730 mmHg 65%
    18:00 +19°C° 0 mm 3 mps 730 mmHg 71%
    19:00 +18°C° 0 mm 3 mps 730 mmHg 78%
    20:00 +17°C° 0 mm 3 mps 730 mmHg 82%
    21:00 +16°C° 0 mm 2 mps 730 mmHg 86%
    22:00 +15°C° 0 mm 2 mps 731 mmHg 90%
    23:00 +14°C° 0 mm 2 mps 730 mmHg 92%

    Tomorrow, 21 May, Tuesday

    Time Temperature Precipitation Wind Pressure Humidity
    00:00 +14°C° 0 mm 2 mps 730 mmHg 93%
    01:00 +13°C° 0 mm 2 mps 730 mmHg 94%
    02:00 +13°C° 0 mm 1 mps 730 mmHg 94%
    03:00 +13°C° 0 mm 1 mps 730 mmHg 93%
    04:00 +11°C° 0 mm 0 mps 730 mmHg 93%
    05:00 +14°C° 0 mm 1 mps 730 mmHg 88%
    06:00 +15°C° 0 mm 1 mps 730 mmHg 84%
    07:00 +16°C° 0 mm 2 mps 730 mmHg 79%
    08:00 +17°C° 0.1 mm 2 mps 730 mmHg 77%
    09:00 +17°C° 0.1 mm 2 mps 730 mmHg 76%
    10:00 +18°C° 0.1 mm 2 mps 730 mmHg 75%
    11:00 +18°C° 0.1 mm 3 mps 729 mmHg 73%
    12:00 +19°C° 0.1 mm 3 mps 729 mmHg 71%
    13:00 +20°C° 0.1 mm 3 mps 729 mmHg 69%
    14:00 +19°C° 0.9 mm 3 mps 729 mmHg 73%
    15:00 +19°C° 0.9 mm 3 mps 728 mmHg 76%
    16:00 +19°C° 0.9 mm 4 mps 728 mmHg 80%
    17:00 +18°C° 2.6 mm 3 mps 728 mmHg 83%
    18:00 +17°C° 2.6 mm 3 mps 728 mmHg 86%
    19:00 +16°C° 2.6 mm 3 mps 728 mmHg 89%
    20:00 +14°C° 0.5 mm 3 mps 728 mmHg 91%
    21:00 +15°C° 0.5 mm 2 mps 728 mmHg 94%
    22:00 +14°C° 0.5 mm 2 mps 728 mmHg 96%
    23:00 +14°C° 0.2 mm 2 mps 728 mmHg 97%

    Day after tomorrow, 22 May, Wednesday

    Time Temperature Precipitation Wind Pressure Humidity
    00:00 +13°C° 0.2 mm 2 mps 728 mmHg 97%
    01:00 +13°C° 0.2 mm 2 mps 728 mmHg 97%
    02:00 +13°C° 0.2 mm 2 mps 728 mmHg 97%
    03:00 +13°C° 0.2 mm 2 mps 728 mmHg 97%
    04:00 +13°C° 0.2 mm 2 mps 728 mmHg 97%
    05:00 +13°C° 0.2 mm 2 mps 728 mmHg 97%
    06:00 +12°C° 0.2 mm 3 mps 728 mmHg 96%
    07:00 +12°C° 0.2 mm 3 mps 729 mmHg 95%
    08:00 +12°C° 0.4 mm 3 mps 729 mmHg 95%
    09:00 +12°C° 0.4 mm 3 mps 729 mmHg 95%
    10:00 +12°C° 0.4 mm 3 mps 729 mmHg 95%
    11:00 +13°C° 0.3 mm 3 mps 730 mmHg 95%
    12:00 +13°C° 0.3 mm 3 mps 730 mmHg 94%
    13:00 +13°C° 0.3 mm 3 mps 730 mmHg 93%
    14:00 +14°C° 0.6 mm 4 mps 730 mmHg 91%
    15:00 +15°C° 0.6 mm 4 mps 730 mmHg 89%
    16:00 +16°C° 0.6 mm 5 mps 730 mmHg 86%
    17:00 +15°C° 1.5 mm 4 mps 730 mmHg 88%
    18:00 +15°C° 1.5 mm 4 mps 730 mmHg 90%
    19:00 +14°C° 1.5 mm 4 mps 731 mmHg 92%
    20:00 +14°C° 1 mm 4 mps 731 mmHg 94%
    21:00 +13°C° 1 mm 4 mps 732 mmHg 95%
    22:00 +13°C° 1 mm 3 mps 732 mmHg 97%
    23:00 +13°C° 0.2 mm 4 mps 732 mmHg 97%

    23 May, Thursday

    Time Temperature Precipitation Wind Pressure Humidity
    00:00 +13°C° 0.2 mm 4 mps 732 mmHg 97%
    01:00 +13°C° 0.2 mm 4 mps 733 mmHg 97%
    02:00 +13°C° 0.3 mm 4 mps 733 mmHg 97%
    03:00 +13°C° 0.3 mm 4 mps 733 mmHg 97%
    04:00 +13°C° 0.3 mm 4 mps 734 mmHg 96%
    05:00 +13°C° 0.8 mm 5 mps 734 mmHg 96%
    06:00 +13°C° 0.8 mm 5 mps 735 mmHg 96%
    07:00 +13°C° 0.8 mm 5 mps 735 mmHg 95%
    08:00 +11°C° 0.6 mm 6 mps 735 mmHg 95%
    09:00 +11°C° 0.6 mm 6 mps 736 mmHg 95%
    10:00 +10°C° 0.6 mm 6 mps 736 mmHg 94%
    11:00 +10°C° 0.2 mm 6 mps 736 mmHg 94%
    12:00 +9°C° 0.2 mm 6 mps 737 mmHg 93%
    13:00 +9°C° 0.2 mm 6 mps 737 mmHg 93%
    14:00 +9°C° 0.1 mm 6 mps 737 mmHg 91%
    15:00 +9°C° 0.1 mm 6 mps 737 mmHg 89%
    16:00 +9°C° 0.1 mm 6 mps 738 mmHg 87%
    17:00 +9°C° 0 mm 5 mps 738 mmHg 85%
    18:00 +10°C° 0 mm 4 mps 738 mmHg 84%
    19:00 +10°C° 0 mm 3 mps 738 mmHg 82%
    20:00 +10°C° 0 mm 3 mps 738 mmHg 82%
    21:00 +10°C° 0 mm 3 mps 738 mmHg 82%
    22:00 +10°C° 0 mm 3 mps 738 mmHg 83%
    23:00 +10°C° 0 mm 3 mps 738 mmHg 84%

    24 May, Friday

    Time Temperature Precipitation Wind Pressure Humidity
    00:00 +10°C° 0 mm 3 mps 738 mmHg 85%
    01:00 +10°C° 0 mm 3 mps 738 mmHg 86%
    02:00 +9°C° 0 mm 3 mps 738 mmHg 88%
    03:00 +8°C° 0 mm 2 mps 738 mmHg 89%
    04:00 +7°C° 0 mm 2 mps 738 mmHg 91%
    05:00 +8°C° 0 mm 2 mps 738 mmHg 82%
    06:00 +9°C° 0 mm 3 mps 738 mmHg 73%
    07:00 +11°C° 0 mm 3 mps 738 mmHg 64%
    08:00 +12°C° 0 mm 3 mps 737 mmHg 59%
    09:00 +13°C° 0 mm 3 mps 737 mmHg 54%
    10:00 +16°C° 0 mm 3 mps 737 mmHg 49%
    11:00 +17°C° 0 mm 3 mps 737 mmHg 48%
    12:00 +17°C° 0 mm 3 mps 736 mmHg 47%
    13:00 +18°C° 0 mm 3 mps 736 mmHg 45%
    14:00 +18°C° 0 mm 3 mps 736 mmHg 47%
    15:00 +18°C° 0 mm 3 mps 735 mmHg 49%
    16:00 +18°C° 0 mm 3 mps 735 mmHg 50%
    17:00 +17°C° 0 mm 2 mps 735 mmHg 57%
    18:00 +16°C° 0 mm 1 mps 735 mmHg 64%
    19:00 +14°C° 0 mm 1 mps 734 mmHg 71%
    20:00 +13°C° 0 mm 1 mps 734 mmHg 73%
    21:00 +11°C° 0 mm 0 mps 735 mmHg 75%
    22:00 +10°C° 0 mm 0 mps 735 mmHg 78%
    23:00 +10°C° 0 mm 0 mps 735 mmHg 79%

    25 May, Saturday

    Time Temperature Precipitation Wind Pressure Humidity
    00:00 +10°C° 0 mm 0 mps 734 mmHg 81%
    01:00 +9°C° 0 mm 0 mps 734 mmHg 83%
    02:00 +9°C° 0 mm 0 mps 734 mmHg 84%
    03:00 +9°C° 0 mm 0 mps 734 mmHg 85%
    04:00 +9°C° 0 mm 0 mps 734 mmHg 85%
    05:00 +12°C° 0 mm 1 mps 734 mmHg 79%
    06:00 +14°C° 0 mm 1 mps 734 mmHg 74%
    07:00 +16°C° 0 mm 1 mps 734 mmHg 68%
    08:00 +18°C° 0 mm 1 mps 734 mmHg 63%
    09:00 +18°C° 0 mm 2 mps 734 mmHg 59%
    10:00 +19°C° 0 mm 2 mps 734 mmHg 54%
    11:00 +20°C° 0 mm 2 mps 734 mmHg 52%
    12:00 +21°C° 0 mm 2 mps 734 mmHg 50%
    13:00 +21°C° 0 mm 2 mps 734 mmHg 49%
    14:00 +23°C° 0 mm 2 mps 733 mmHg 49%
    15:00 +23°C° 0 mm 2 mps 733 mmHg 50%
    16:00 +22°C° 0 mm 3 mps 733 mmHg 51%
    17:00 +20°C° 0.2 mm 2 mps 733 mmHg 62%
    18:00 +18°C° 0.2 mm 2 mps 733 mmHg 73%
    19:00 +18°C° 0.2 mm 1 mps 733 mmHg 83%
    20:00 +16°C° 0.1 mm 1 mps 733 mmHg 86%
    21:00 +15°C° 0.1 mm 2 mps 734 mmHg 89%
    22:00 +14°C° 0.1 mm 2 mps 734 mmHg 91%
    23:00 +13°C° 0 mm 2 mps 734 mmHg 93%
    Show more